Location: D�nning
(49.2479°N, 12.8491°E)
Time: 06:02:33
(UTC+00:00)

NOSS 3-2 (A) - Pass Details

Date: 18 September 2020
Orbit: 795 x 1413 km, 63.4° (Epoch: 25 October)

Event Time Altitude Azimuth Distance (km) Brightness Sun altitude
Rises 18:09:43 0° 316° (NW) 3,863 7.7 -9.7°
Reaches altitude 10° 18:12:16 10° 320° (NW) 2,991 6.9 -10.1°
Maximum altitude 18:19:28 62° 41° (NE) 1,382 4.2 -11.3°
Enters shadow 18:26:33 15° 119° (ESE) 3,028 5.4 -12.4°
